Location: Sungai Igah
(2.7333°N, 114.2500°E)
Time: 11:43:01
(UTC+00:00)

CSL-04 Rocket - Pass Details

Date: 14 June 2021
Orbit: 805 x 861 km, 98.9° (Epoch: 04 August)

Event Time Altitude Azimuth Distance (km) Brightness Sun altitude
Exits shadow 12:28:45 47° 200° (SSW) 1,091 4.1 -27.3°
Maximum altitude 12:30:07 64° 257° (WSW) 924 3.9 -27.6°
Drops below altitude 10° 12:35:31 10° 338° (NNW) 2,463 6.7 -28.8°
Sets 12:37:55 0° 342° (NNW) 3,403 7.5 -29.3°
